Wind_Speed
10 9 8 8 8 8 8 8 9 9 9 9 9 9 10 11 13 16 19 14 9 14 11 9 4 2 2 4 3 3 4 1 3 1 2 1 2 7 5 3 4 4 8 18 29
11 9 9 8 8 8 8 8 8 8 9 9 9 9 10 11 14 17 5 8 10 9 12 10 4 2 4 3 2 4 4 8 5 4 1 10 7 6 2 3 2 8 10 25 33
12 11 10 9 8 7 7 7 8 8 8 9 9 10 10 10 14 1 5 4 14 12 8 6 4 2 3 4 3 3 5 5 8 11 6 12 6 7 3 4 17 26 26 30 32
14 11 10 9 8 7 7 7 7 7 8 8 8 9 9 7 1 2 4 3 8 14 12 7 5 4 3 4 5 2 8 7 7 2 2 3 10 7 17 10 14 20 33 35 34
15 11 9 8 7 6 6 6 6 7 7 7 7 8 7 6 10 7 4 2 6 12 12 9 9 4 2 3 2 5 6 11 13 18 12 12 17 11 20 16 13 18 33 36 37
16 12 9 7 7 6 5 5 5 6 6 6 7 8 8 5 4 2 0 4 7 11 12 13 8 5 4 2 4 3 7 15 10 21 13 12 12 6 23 20 15 23 28 30 36
16 13 10 7 6 5 5 4 4 4 5 5 6 8 12 18 5 5 1 3 5 7 11 12 10 2 3 8 4 4 5 6 4 8 5 10 4 10 12 24 20 22 25 24 31
17 14 10 7 5 3 3 3 3 4 4 4 5 7 9 4 13 11 4 2 5 5 7 6 6 9 5 6 6 5 3 3 6 3 4 6 9 10 10 21 23 25 25 25 30
18 15 11 7 3 2 2 0 2 3 4 4 5 5 10 6 13 15 9 3 6 6 6 5 9 6 2 3 5 7 3 2 8 5 4 3 7 8 9 21 27 25 28 28 29
18 14 10 5 2 4 3 1 2 4 4 4 7 6 8 2 6 11 11 10 6 4 6 5 4 2 4 4 5 3 2 3 4 5 1 5 10 8 9 24 28 30 29 31 31
17 13 9 5 5 5 3 1 3 3 6 10 13 17 23 14 8 5 11 15 14 2 3 0 3 7 7 6 6 3 3 5 6 3 3 9 12 17 12 21 18 26 31 34 34
15 10 7 6 5 4 1 4 8 8 11 19 22 27 27 21 7 6 12 11 8 5 1 4 7 7 5 3 4 5 4 11 8 5 5 12 12 15 9 21 35 31 29 37 39
12 7 4 6 3 3 8 14 14 10 5 10 9 15 20 13 12 18 13 21 4 6 5 7 7 5 6 5 5 6 5 8 9 10 6 6 8 5 3 6 25 31 42 45 48
11 5 2 1 3 6 8 12 13 7 5 6 3 1 8 6 5 16 15 18 1 9 6 7 9 11 6 7 7 6 8 12 10 1 6 3 6 6 3 6 8 18 28 41 43
10 3 2 2 3 8 11 11 9 3 4 4 3 2 8 10 2 2 19 20 10 8 6 10 4 4 5 8 6 10 5 8 11 6 2 4 3 8 2 3 8 16 28 36 37
8 1 3 3 4 12 14 6 1 5 2 7 5 6 1 4 4 5 8 14 9 5 4 10 6 5 8 9 8 5 4 1 3 3 4 8 7 6 5 7 6 12 26 31 40
5 3 4 7 10 12 11 1 4 3 7 8 6 8 5 8 9 10 6 16 9 8 4 13 13 6 5 5 8 5 5 4 5 2 7 6 4 8 7 9 10 13 33 42 41
6 14 11 4 4 10 10 5 6 6 5 4 6 6 6 11 7 12 6 9 15 11 4 3 9 7 4 11 14 7 9 6 6 4 9 3 7 7 12 19 16 23 29 36 41
15 13 7 3 8 9 4 6 2 6 11 11 5 5 8 7 6 5 9 11 12 14 6 8 6 10 13 5 8 4 4 7 4 4 2 5 8 6 6 9 10 17 24 36 45
16 10 11 9 8 6 6 6 4 12 9 3 6 12 9 10 9 8 6 13 9 14 10 7 8 9 8 5 5 8 5 6 1 4 8 5 6 6 7 11 9 6 21 27 30
9 2 20 9 6 15 4 5 5 18 10 8 6 6 6 6 5 6 9 7 16 12 11 6 2 8 9 3 5 5 3 2 3 5 9 11 8 6 8 9 10 8 22 36 42
5 5 25 6 10 6 4 5 8 17 15 11 6 7 4 6 5 3 5 5 19 18 6 4 4 5 7 22 8 5 9 7 3 7 3 2 8 4 4 3 6 10 17 21 24
9 10 35 7 5 3 8 8 12 12 10 4 6 6 3 4 3 6 6 6 19 15 8 6 3 7 10 3 6 7 7 13 6 3 6 3 6 2 6 8 14 21 24 28 28
6 4 15 33 15 8 4 9 4 12 16 9 4 4 4 4 3 3 9 7 24 19 12 3 2 5 9 9 9 16 17 10 4 4 9 10 11 8 12 8 6 23 33 35 34
9 6 11 4 10 16 16 4 6 5 9 16 7 6 3 5 6 5 3 10 7 8 4 2 4 7 12 13 14 20 25 18 13 11 11 20 20 7 11 12 16 12 30 34 38
9 9 21 9 14 16 9 4 9 4 6 4 5 1 4 3 4 6 7 2 6 4 2 1 4 5 15 16 18 12 12 15 16 18 13 19 20 3 19 21 15 19 26 29 33
28 15 9 13 7 5 4 5 7 8 10 12 8 4 3 4 18 25 24 21 14 3 2 0 2 3 10 7 8 9 4 7 12 4 2 4 4 12 17 16 19 13 12 24 34
Wind_Direction
332 327 319 310 296 285 275 267 265 262 262 266 269 278 282 288 291 287 278 273 257 228 218 219 234 286 238 230 213 153 69 179 259 215 236 181 92 234 247 242 156 133 164 169 158
330 320 314 310 299 289 280 267 262 260 259 262 268 275 284 294 298 293 308 250 221 228 214 234 216 189 152 207 208 114 123 206 224 162 258 180 182 232 233 172 181 156 157 162 166
332 321 312 307 302 288 277 264 260 261 259 260 264 270 284 302 313 73 33 324 201 202 205 207 217 162 144 175 210 146 187 200 264 271 266 208 212 228 136 245 209 183 162 171 178
337 322 311 303 299 291 279 265 261 262 261 260 262 268 279 295 265 104 29 21 182 190 202 205 217 160 125 202 210 167 240 248 277 46 9 207 228 237 189 235 208 193 175 177 187
344 331 313 304 300 289 263 250 251 256 258 261 263 266 271 264 260 288 300 319 216 197 208 202 182 180 163 203 292 173 252 281 293 301 286 251 210 212 214 220 211 187 181 188 193
349 341 325 309 302 289 261 246 244 259 263 265 265 261 251 256 262 250 347 292 244 219 208 195 190 210 289 260 171 214 271 295 312 305 290 171 230 204 225 225 237 205 189 187 201
350 344 333 318 301 283 246 241 242 260 270 270 264 257 257 251 249 199 208 296 263 238 206 189 170 301 348 320 332 285 317 339 297 298 267 219 157 215 208 208 215 212 208 198 200
351 346 336 322 299 273 219 228 246 269 276 277 265 263 257 255 219 192 208 272 183 168 170 177 236 283 248 271 339 2 50 340 290 1 281 167 259 258 217 201 206 206 211 217 210
353 350 344 331 311 188 173 246 274 271 272 269 265 269 266 260 241 215 211 227 180 191 211 236 297 245 209 77 10 4 246 220 308 218 253 175 262 267 247 202 205 204 207 212 218
355 356 357 4 105 136 111 77 294 264 261 263 255 293 258 44 340 234 224 219 207 235 272 233 198 81 36 81 232 239 304 295 240 293 48 300 270 271 238 186 181 187 192 195 206
354 1 12 43 102 113 128 143 351 280 266 244 272 264 279 295 319 231 195 204 224 290 194 16 82 221 228 205 190 279 256 254 261 220 338 271 266 272 227 179 168 173 174 173 177
351 1 29 63 90 104 338 311 357 315 297 281 263 255 257 264 300 217 204 185 173 208 133 350 252 218 219 181 206 243 269 277 290 250 162 271 260 273 179 183 184 180 177 175 170
346 353 54 75 54 54 25 10 353 323 293 297 259 250 247 238 231 257 211 205 150 160 186 198 228 145 189 243 222 230 207 268 234 309 213 260 283 286 178 150 194 187 186 181 182
341 337 265 358 95 10 14 354 350 333 37 285 276 280 170 164 246 234 216 196 181 198 194 236 250 237 211 232 169 264 209 247 273 330 260 147 267 294 265 140 198 190 194 191 189
336 315 235 158 70 9 336 316 330 314 55 336 54 315 160 175 4 215 201 203 190 200 131 240 212 191 211 227 149 235 232 221 248 239 206 277 127 266 300 161 213 205 212 206 201
338 280 177 150 14 341 327 326 296 42 0 351 28 352 150 257 347 358 184 210 238 195 245 232 220 184 228 263 172 243 319 84 46 118 235 224 181 259 196 207 183 222 217 212 209
350 126 105 61 343 329 339 346 44 72 325 355 337 339 40 356 8 15 19 54 32 348 295 271 254 251 219 290 285 165 75 312 306 295 239 229 179 224 229 225 209 195 212 213 214
100 109 98 75 338 346 352 59 71 346 352 2 329 335 74 9 2 13 65 28 28 4 297 260 289 189 217 205 232 189 158 170 244 251 285 314 236 256 222 229 226 232 231 208 209
133 129 79 46 334 338 347 56 42 335 327 330 337 21 16 6 359 53 64 14 25 358 358 345 278 327 303 237 156 250 169 207 210 292 323 230 287 285 221 240 230 217 211 203 205
142 118 33 353 358 4 69 100 98 2 334 17 48 18 41 1 16 20 39 19 359 356 344 350 290 270 299 288 252 189 184 253 41 217 252 250 253 236 233 245 251 223 194 190 182
150 89 359 10 62 59 80 70 49 358 38 42 23 41 65 8 342 22 21 48 15 357 33 360 246 306 338 292 284 329 287 252 239 164 250 267 259 217 232 259 254 233 195 184 183
74 56 1 52 53 52 43 6 48 5 38 53 72 57 53 348 28 90 60 35 21 14 2 2 280 280 280 300 327 32 21 47 43 305 261 228 261 252 226 220 191 124 149 158 157
85 44 32 91 91 53 61 68 82 47 31 62 45 54 360 34 47 63 25 351 15 7 358 349 323 318 304 358 33 40 353 1 291 209 251 202 274 282 257 134 145 131 138 146 153
90 43 35 57 76 110 108 33 82 44 42 50 19 63 34 46 338 9 2 343 331 323 329 336 287 260 267 296 314 302 311 328 293 285 321 282 311 314 336 334 151 143 152 159 167
66 62 59 6 30 70 75 29 28 34 62 26 28 52 38 39 343 355 272 312 300 295 336 148 243 247 269 282 299 288 288 290 265 262 260 286 287 291 313 301 282 196 160 165 174
95 108 89 66 56 56 35 31 41 21 31 38 49 13 73 125 205 279 290 263 248 318 306 323 264 278 285 276 266 275 298 282 268 263 256 266 264 2 318 327 325 201 178 186 198
80 92 95 30 43 64 21 39 38 25 70 56 11 5 328 299 300 286 281 271 260 265 279 196 324 319 283 278 291 295 242 278 278 211 268 260 312 325 328 332 338 315 241 198 190
Height
1514 1512 1511 1509 1508 1507 1506 1506 1506 1507 1507 1507 1507 1507 1506 1506 1504 1502 1500 1501 1502 1502 1504 1506 1507 1508 1510 1510 1511 1512 1526 1535 1521 1517 1513 1510 1510 1510 1509 1508 1506 1506 1506 1509 1515
1513 1511 1510 1508 1507 1505 1504 1504 1505 1505 1505 1505 1505 1505 1505 1504 1503 1499 1499 1497 1498 1500 1503 1504 1506 1507 1508 1509 1510 1512 1526 1523 1510 1508 1509 1508 1509 1508 1510 1509 1507 1507 1508 1510 1514
1512 1509 1508 1507 1505 1504 1503 1503 1503 1503 1503 1503 1503 1504 1504 1503 1502 1497 1496 1495 1496 1499 1501 1503 1504 1506 1508 1509 1509 1510 1518 1510 1505 1506 1507 1505 1508 1509 1507 1510 1502 1500 1505 1508 1513
1510 1508 1506 1505 1504 1503 1502 1501 1501 1501 1501 1501 1502 1502 1502 1503 1503 1496 1496 1495 1495 1497 1500 1501 1503 1506 1508 1509 1507 1511 1506 1506 1504 1506 1506 1507 1506 1505 1502 1497 1501 1505 1504 1504 1509
1508 1506 1504 1503 1502 1501 1501 1500 1500 1500 1500 1500 1501 1501 1502 1502 1496 1496 1496 1495 1496 1497 1499 1501 1502 1503 1507 1506 1506 1508 1504 1502 1501 1502 1503 1503 1503 1501 1499 1495 1500 1505 1507 1506 1507
1507 1504 1502 1501 1500 1499 1499 1499 1499 1499 1499 1499 1499 1500 1500 1501 1494 1494 1495 1495 1495 1496 1497 1499 1501 1504 1504 1504 1505 1503 1502 1499 1497 1494 1495 1499 1500 1502 1496 1497 1498 1502 1506 1510 1507
1506 1503 1501 1499 1499 1498 1498 1498 1498 1498 1498 1498 1498 1498 1497 1491 1493 1493 1494 1494 1494 1495 1496 1498 1501 1504 1505 1502 1501 1500 1501 1497 1494 1493 1493 1491 1501 1500 1491 1494 1497 1499 1503 1507 1509
1505 1502 1500 1498 1498 1497 1498 1498 1498 1498 1497 1497 1497 1497 1492 1489 1489 1491 1493 1494 1494 1495 1497 1500 1502 1503 1503 1501 1500 1503 1504 1511 1495 1494 1491 1493 1508 1489 1490 1492 1495 1497 1500 1503 1505
1504 1501 1498 1497 1496 1497 1498 1498 1498 1498 1497 1497 1497 1497 1489 1487 1487 1490 1492 1494 1495 1496 1497 1500 1502 1501 1501 1505 1514 1514 1520 1511 1504 1493 1493 1494 1499 1483 1487 1488 1491 1494 1495 1498 1500
1504 1501 1498 1497 1496 1497 1497 1498 1497 1497 1497 1496 1496 1498 1488 1488 1486 1488 1490 1493 1495 1496 1497 1498 1499 1503 1507 1513 1532 1521 1515 1510 1509 1496 1492 1496 1493 1483 1485 1486 1486 1489 1492 1494 1496
1504 1501 1499 1497 1497 1497 1498 1498 1500 1499 1495 1492 1490 1488 1486 1487 1487 1486 1488 1491 1495 1496 1499 1497 1505 1512 1508 1506 1507 1507 1510 1513 1501 1495 1496 1494 1492 1480 1476 1484 1485 1485 1487 1491 1494
1503 1501 1499 1498 1498 1498 1498 1498 1498 1499 1489 1483 1482 1482 1483 1485 1488 1486 1489 1492 1494 1500 1498 1503 1508 1500 1499 1502 1505 1509 1511 1508 1496 1489 1497 1491 1490 1477 1473 1473 1475 1479 1485 1488 1491
1503 1501 1500 1499 1499 1499 1499 1499 1496 1494 1492 1478 1476 1476 1477 1482 1484 1482 1486 1488 1490 1497 1498 1505 1496 1492 1497 1500 1506 1506 1509 1504 1506 1488 1489 1489 1492 1479 1469 1470 1475 1476 1477 1482 1481
1501 1500 1500 1500 1501 1499 1498 1497 1496 1494 1502 1484 1477 1476 1476 1479 1480 1478 1481 1486 1489 1493 1495 1496 1487 1490 1495 1499 1499 1509 1493 1493 1495 1501 1515 1487 1515 1485 1469 1473 1477 1477 1480 1479 1479
1500 1499 1499 1499 1500 1500 1500 1497 1495 1495 1519 1479 1477 1476 1477 1479 1478 1477 1479 1483 1486 1487 1492 1492 1486 1489 1493 1491 1491 1497 1486 1492 1492 1500 1500 1495 1508 1489 1473 1476 1477 1475 1477 1477 1480
1498 1497 1498 1499 1499 1499 1496 1494 1495 1508 1511 1486 1480 1481 1480 1477 1478 1479 1479 1481 1481 1483 1483 1480 1478 1481 1481 1478 1482 1481 1485 1488 1496 1502 1515 1498 1501 1495 1482 1469 1468 1467 1471 1474 1475
1496 1496 1498 1499 1499 1497 1495 1494 1510 1518 1492 1498 1492 1485 1485 1489 1487 1485 1486 1506 1517 1514 1499 1483 1480 1474 1476 1481 1476 1481 1497 1522 1518 1518 1511 1483 1498 1479 1459 1456 1454 1458 1460 1463 1468
1495 1496 1497 1497 1497 1495 1493 1497 1520 1507 1505 1496 1495 1489 1498 1502 1497 1497 1504 1520 1519 1522 1516 1503 1494 1476 1469 1476 1478 1484 1491 1517 1523 1521 1496 1481 1489 1465 1448 1443 1446 1448 1451 1455 1461
1496 1496 1497 1497 1496 1494 1494 1521 1539 1532 1523 1511 1500 1505 1511 1509 1509 1505 1530 1538 1535 1529 1535 1522 1496 1472 1470 1466 1470 1475 1490 1477 1491 1489 1505 1485 1467 1448 1443 1443 1442 1443 1444 1447 1448
1497 1498 1498 1497 1495 1494 1499 1522 1532 1532 1524 1517 1524 1524 1530 1529 1519 1517 1534 1546 1542 1537 1532 1533 1526 1482 1469 1463 1462 1466 1464 1482 1498 1503 1508 1486 1476 1466 1447 1441 1435 1434 1436 1441 1449
1498 1499 1499 1497 1496 1496 1524 1532 1535 1532 1526 1528 1533 1536 1539 1540 1534 1538 1543 1544 1542 1538 1535 1536 1531 1499 1482 1472 1473 1470 1473 1470 1472 1484 1481 1482 1468 1447 1443 1439 1435 1431 1432 1432 1437
1499 1506 1502 1498 1503 1518 1534 1534 1537 1537 1533 1536 1538 1541 1543 1542 1539 1541 1545 1545 1545 1541 1541 1537 1533 1522 1497 1483 1483 1481 1496 1502 1504 1492 1486 1482 1468 1438 1434 1431 1432 1431 1434 1440 1447
1507 1512 1507 1500 1523 1534 1537 1540 1542 1541 1540 1541 1545 1545 1545 1548 1545 1545 1548 1546 1545 1543 1540 1537 1537 1528 1494 1487 1491 1501 1505 1508 1506 1503 1492 1486 1460 1438 1436 1427 1429 1431 1437 1441 1447
1509 1520 1521 1517 1527 1533 1539 1546 1545 1546 1547 1546 1548 1547 1548 1550 1549 1550 1549 1546 1544 1542 1540 1538 1542 1537 1527 1520 1519 1510 1508 1511 1512 1514 1495 1484 1468 1452 1451 1441 1430 1430 1434 1439 1445
1515 1533 1536 1543 1541 1539 1541 1550 1550 1550 1551 1550 1551 1551 1551 1557 1555 1552 1548 1545 1542 1539 1538 1539 1544 1537 1529 1524 1521 1518 1509 1506 1504 1499 1497 1471 1470 1461 1459 1453 1445 1438 1434 1438 1440
1521 1534 1540 1544 1546 1545 1548 1557 1555 1553 1554 1556 1557 1554 1553 1556 1555 1554 1548 1545 1544 1539 1538 1538 1541 1532 1526 1519 1514 1506 1506 1499 1491 1483 1472 1466 1463 1461 1456 1448 1438 1435 1435 1435 1437
1531 1536 1539 1552 1552 1553 1558 1559 1558 1555 1558 1558 1556 1553 1552 1550 1548 1543 1541 1540 1539 1541 1540 1541 1542 1538 1520 1511 1510 1510 1495 1490 1481 1473 1472 1470 1467 1460 1452 1449 1445 1439 1440 1434 1433